Location: Buchberg
(46.9333°N, 15.8500°E)
Time: 19:54:47
(UTC+00:00)

CZ-4 R/B - Pass Details

Date: 14 July 2020
Orbit: 682 x 752 km, 98.5° (Epoch: 05 August)

Event Time Altitude Azimuth Distance (km) Brightness Sun altitude
Rises 00:01:03 0° 8° (N) 3,082 8.7 -20.2°
Reaches altitude 10° 00:03:21 10° 3° (N) 2,169 7.5 -20.1°
Maximum altitude 00:07:52 46° 291° (WNW) 953 4.5 -19.9°
Enters shadow 00:09:36 32° 241° (WSW) 1,216 4.7 -19.8°
